Weather History for Beaufort, NC

Change the Weather History Date:

Thursday, December 13, 2012

  Actual Average Record
Temperature  
Mean Temperature 50 °F -  
Max Temperature 53 °F 60 °F 76 °F (1956)
Min Temperature 46 °F 39 °F 14 °F (1962)
Degree Days  
Heating Degree Days 16    
Moisture  
Dew Point 46 °F    
Average Humidity 89    
Maximum Humidity 93    
Minimum Humidity 80    
Precipitation  
Precipitation 0.61 in - - ()
Sea Level Pressure  
Sea Level Pressure 30.21 in    
Wind  
Wind Speed 17 mph (North)    
Max Wind Speed 23 mph    
Max Gust Speed 33 mph    
Visibility 9 miles    
Events Rain    
Averages and records for this station are not official NWS values.
T = Trace of Precipitation, MM = Missing Value Source: NWS Daily Summary

Daily Weather History Graph

Daily Weather History Graph

Search for Another Location

Airport:

Trip Planner

Search our weather history database for the weather conditions in past years. The results will help you decide how hot, cold, wet, or windy it might be!

Date:

Astronomy

Dec. 13, 2012 Rise Set
Actual Time 7:05 AM EST 4:56 PM EST
Civil Twilight 6:37 AM EST 5:24 PM EST
Nautical Twilight 6:06 AM EST 5:56 PM EST
Astronomical Twilight 5:35 AM EST 6:26 PM EST
Moon 7:12 AM EST (12/13) 5:35 PM EST (12/13)
Length of Visible Light 10h 47m
Length of Day
9h 51m
New Moon, 0% of the Moon is Illuminated
Dec 13
New Moon
Dec 20
First Quarter
Dec 28
Full
Jan 4
Last Quarter
Jan 11
New

Hourly Weather History & Observations

Time (EST) Temp. Windchill Dew Point Humidity Pressure Visibility Wind Dir Wind Speed Gust Speed Precip Events Conditions
12:40 AM 48.2 °F - 46.4 °F 93% 30.16 in 4.0 mi North 19.6 mph 26.5 mph 0.12 in Rain Heavy Rain
12:56 AM 48.9 °F - 46.9 °F 93% 30.17 in 4.0 mi North 16.1 mph 27.6 mph 0.17 in Rain Heavy Rain
1:10 AM 48.2 °F - 46.4 °F 93% 30.16 in 5.0 mi North 15.0 mph 25.3 mph 0.04 in Rain Rain
1:47 AM 48.2 °F - 46.4 °F 93% 30.17 in 6.0 mi North 18.4 mph 27.6 mph 0.12 in Rain Rain
1:56 AM 48.9 °F - 46.9 °F 93% 30.18 in 6.0 mi North 16.1 mph 25.3 mph 0.13 in Rain Rain
2:38 AM 48.2 °F - 46.4 °F 93% 30.18 in 5.0 mi North 17.3 mph 25.3 mph 0.09 in Rain Rain
2:56 AM 48.9 °F - 46.9 °F 93% 30.18 in 10.0 mi NNE 17.3 mph 26.5 mph 0.10 in Rain Light Rain
3:56 AM 48.9 °F - 46.9 °F 93% 30.15 in 10.0 mi NNE 17.3 mph 31.1 mph 0.02 in Rain Light Rain
4:38 AM 48.2 °F - 46.4 °F 93% 30.12 in 9.0 mi NE 18.4 mph 31.1 mph 0.04 in Rain Light Rain
4:48 AM 48.2 °F - 46.4 °F 93% 30.12 in 10.0 mi NE 20.7 mph 31.1 mph 0.04 in Rain Light Rain
4:56 AM 48.9 °F - 46.9 °F 93% 30.13 in 9.0 mi NE 19.6 mph 33.4 mph 0.04 in Rain Light Rain
5:56 AM 50.0 °F - 46.9 °F 89% 30.15 in 6.0 mi NNE 16.1 mph 31.1 mph 0.15 in Rain Light Rain
6:03 AM 50.0 °F - 46.4 °F 87% 30.15 in 9.0 mi NNE 18.4 mph 27.6 mph 0.00 in Rain Light Rain
6:56 AM 50.0 °F - 48.0 °F 93% 30.17 in 10.0 mi NNE 17.3 mph 25.3 mph 0.00 in   Overcast
7:56 AM 50.0 °F - 48.0 °F 93% 30.19 in 10.0 mi North 13.8 mph - N/A   Overcast
8:15 AM 48.2 °F - 46.4 °F 93% 30.20 in 10.0 mi North 11.5 mph 19.6 mph 0.00 in   Overcast
8:56 AM 48.9 °F - 46.9 °F 93% 30.22 in 10.0 mi North 12.7 mph - 0.00 in   Overcast
9:56 AM 48.0 °F - 46.0 °F 93% 30.24 in 6.0 mi North 13.8 mph - N/A   Overcast
10:56 AM 48.9 °F - 46.0 °F 90% 30.25 in 7.0 mi North 12.7 mph - N/A   Overcast
11:56 AM 48.9 °F - 46.0 °F 90% 30.24 in 9.0 mi North 15.0 mph 20.7 mph N/A   Overcast
12:45 PM 50.0 °F - 46.4 °F 87% 30.23 in 10.0 mi North 17.3 mph 23.0 mph N/A   Overcast
12:56 PM 51.1 °F - 46.0 °F 83% 30.23 in 10.0 mi North 18.4 mph 23.0 mph N/A   Overcast
1:16 PM 51.8 °F - 46.4 °F 82% 30.23 in 10.0 mi North 19.6 mph 28.8 mph N/A   Overcast
1:56 PM 52.0 °F - 46.9 °F 83% 30.23 in 10.0 mi North 17.3 mph 25.3 mph N/A   Overcast
2:07 PM 51.8 °F - 46.4 °F 82% 30.22 in 10.0 mi North 18.4 mph 25.3 mph N/A   Overcast
2:56 PM 53.1 °F - 46.9 °F 80% 30.22 in 10.0 mi North 23.0 mph 29.9 mph N/A   Overcast
3:56 PM 52.0 °F - 46.0 °F 80% 30.23 in 10.0 mi North 15.0 mph 28.8 mph N/A   Mostly Cloudy
4:03 PM 51.8 °F - 46.4 °F 82% 30.23 in 10.0 mi North 17.3 mph 27.6 mph N/A   Overcast
4:56 PM 51.1 °F - 45.0 °F 80% 30.24 in 10.0 mi North 16.1 mph 23.0 mph N/A   Mostly Cloudy
7:56 PM 48.0 °F - 43.0 °F 83% 30.28 in 10.0 mi North 13.8 mph - N/A   Clear
8:56 PM 46.9 °F - 42.1 °F 83% 30.29 in 10.0 mi North 12.7 mph - N/A   Clear
9:56 PM 46.0 °F 39.9 °F 42.1 °F 86% 30.28 in 10.0 mi North 13.8 mph - N/A   Clear
10:56 PM 46.0 °F 40.6 °F 43.0 °F 89% 30.28 in 10.0 mi North 11.5 mph - N/A   Clear
11:56 PM 46.0 °F 39.9 °F 42.1 °F 86% 30.28 in 10.0 mi North 13.8 mph - N/A   Clear